Regional Weather Roundup
Issued by NWS

Home | Current Version | Previous Version | Graphics & Text | Print | Product List | Glossary Off
Versions: 1 2 3 4 5 6 7 8 9 10 11 12 13 14 15 16 17 18 19 20 21 22 23 24 25 26 27 28 29 30 31 32 33 34 35 36 37 38 39 40 41 42 43 44 45 46 47 48 49 50

000
ASUS43 KMKX 250311
RWRWI

WISCONSIN REGIONAL WEATHER ROUNDUP
NATIONAL WEATHER SERVICE MILWAUKEE/SULLIVAN WI
1000 PM CDT SUN JUL 24 2016

NOTE: "FAIR" INDICATES FEW OR NO CLOUDS BELOW 12,000 FEET WITH NO
SIGNIFICANT WEATHER AND/OR OBSTRUCTIONS TO VISIBILITY.

WIZ001-002-006>008-014>016-023>028-250400-
NORTHWEST WISCONSIN

CITY           SKY/WX    TMP DP  RH WIND       PRES   REMARKS
SUPERIOR ARPT  CLEAR     70  62  76 W7        29.87R
ASHLAND        PTCLDY    70  62  76 SW8       29.87R
HAYWARD        CLEAR     71  61  70 SW3       29.91R
SIREN          CLEAR     70  61  73 W5        29.93R
CUMBERLAND     CLEAR     68  59  73 W7        29.93S
RICE LAKE      CLEAR     68  61  77 CALM      29.94R
CHETEK         CLEAR     72  62  70 CALM      29.92R
LADYSMITH      CLEAR     69  63  81 W6        29.93R
EAU CLAIRE     CLEAR     71  63  75 W5        29.92R
MENOMONIE      CLEAR     73  63  68 W7        29.93R
NEW RICHMOND   CLEAR     69  61  76 W7        29.95R
OSCEOLA        CLEAR     70  63  77 W7        29.96R
$$

WIZ003>005-009-010-017-018-250400-
NORTH CENTRAL WISCONSIN

CITY           SKY/WX    TMP DP  RH WIND       PRES   REMARKS
MANITOWISH WTR CLEAR     65  64  99 CALM      29.90R
ARBOR VITAE    CLEAR     72  64  77 CALM      29.90S
WOODRUFF       CLEAR     72  64  77 CALM      29.90S
RHINELANDER    CLEAR     70  61  73 W6        29.90R
EAGLE RIVER    CLEAR     66  59  77 CALM      29.89S
LAND O LAKES   PTCLDY    69  61  75 W3        29.90S
PHILLIPS       CLEAR     68  64  85 W3        29.90S
TOMAHAWK       CLEAR     66  60  83 W3        29.91R
MEDFORD        CLOUDY    67  64  93 NW3       29.91R
MERRILL        CLOUDY    71  63  77 NW5       29.90S
$$

WIZ029-030-035-036-043>047-250400-
CENTRAL WISCONSIN

CITY           SKY/WX    TMP DP  RH WIND       PRES   REMARKS
WAUSAU         PTCLDY    74  62  66 NW8       29.88R
MOSINEE        CLEAR     72  63  73 NW3       29.91R
MARSHFIELD     CLEAR     70  62  76 W6        29.92R
STEVENS POINT  CLOUDY    73  63  70 NW5       29.90R
WAUPACA        CLOUDY    78  65  63 W3        29.88R HX  80
WAUTOMA        CLOUDY    75  68  78 W3        29.90R
WISC RAPIDS    PTCLDY    71  62  73 W6        29.92R
CAMP DOUGLAS   CLEAR     69  64  84 W5        29.92R
$$

WIZ011>013-019>022-031-037>040-048>050-250400-
NORTHEAST WISCONSIN

CITY           SKY/WX    TMP DP  RH WIND       PRES   REMARKS
ANTIGO         PTCLDY    69  64  83 CALM      29.90S
SHAWANO        PTCLDY    76  66  70 W5        29.86R
OCONTO         CLEAR    N/A N/A N/A CALM      29.82S
STURGEON BAY   PTCLDY    76  68  76 SW3       29.84R
GREEN BAY      CLOUDY    75  69  81 W6        29.84S
MANITOWOC      MOCLDY    77  66  68 CALM      29.85S
APPLETON       PTCLDY    75  64  69 W6        29.85R
CLINTONVILLE   MOCLDY    73  63  68 W6        29.86R
OSHKOSH        CLOUDY    77  67  71 W5        29.87R
$$

WIZ032>034-041-042-053>061-250400-
SOUTHWEST WISCONSIN

CITY           SKY/WX    TMP DP  RH WIND       PRES   REMARKS
LA CROSSE      CLEAR     76  66  71 NW8       29.92R
SPARTA         CLEAR     70  66  86 W3        29.94R
VIROQUA        CLEAR     70  66  88 W5        29.96R
BOSCOBEL       CLEAR     72  69  90 CALM      29.93R
PRAIRIE DU CHI PTCLDY    73  64  72 W6        29.94R
PLATTEVILLE    CLOUDY    72  69  92 W7        29.95R
$$

WIZ056-057-062-063-064-067-068-250400-
SOUTH CENTRAL WISCONSIN

CITY           SKY/WX    TMP DP  RH WIND       PRES   REMARKS
REEDSBURG      CLOUDY    73  67  80 W3        29.92R
BARABOO/DELLS  CLOUDY    73  64  74 W5        29.92R
LONE ROCK      CLOUDY    73  69  87 NW5       29.92R
MINERAL POINT  CLOUDY    73  70  88 W5        29.94R
MADISON        CLOUDY    77  66  68 NW5       29.89S
MIDDLETON      CLOUDY    74  68  80 NW3       29.91S
WATERTOWN      MOCLDY    76  69  78 NW5       29.88R
MONROE         CLOUDY    77  66  69 W8        29.92R
JANESVILLE     NOT AVBL
$$

WIZ051-052-058>065-066-070>072-250400-
SOUTHEAST WISCONSIN

CITY           SKY/WX    TMP DP  RH WIND       PRES   REMARKS
MILWAUKEE      CLOUDY    86  70  58 NW7       29.86R HX  90
WAUKESHA       CLOUDY    77  64  65 W6        29.89F
MILWAUKEE/TIMM MOCLDY    81  64  57 W6        29.87S HX  82
RACINE         CLOUDY    83  75  77 W5        29.89R HX  90
BURLINGTON     MOCLDY    79  70  73 NW3       29.88F HX  82
KENOSHA        CLOUDY    83  76  79 NW8       29.89S HX  91
FOND DU LAC    CLOUDY    78  68  71 W6        29.87S HX  80
SHEBOYGAN      CLOUDY    76  67  73 NW5       29.85S
WEST BEND      MOCLDY    77  66  69 W3        29.87R
JUNEAU         CLOUDY    76  67  75 W3        29.90R
$$

LSZ147-162-250400-
LAKE SUPERIOR

STATION/POSITION TIME  TEMP    WIND        PRES    WAVE
                       AIR SEA DIR/SP/G            HT/PER
                 (UTC) (F)     (DEG/KT/KT) (MB)    (FT/S)
W MID LAKE BUOY  0250   64 59  250/ 10/ 12 1008.5R   1/ 5
DEVILS ISLAND    0300   68     250/ 15/ 18 1009.9R
PORT WING        0217   74     240/ 10/ 16 1010.8
SAXON HARBOR     0200   75     200/  5/  6 1010.2F
$$

LMZ867-665-643>646-250400-
LAKE MICHIGAN

STATION/POSITION TIME  TEMP    WIND        PRES    WAVE
                       AIR SEA DIR/SP/G            HT/PER
                 (UTC) (F)     (DEG/KT/KT) (MB)    (FT/S)
CHAMBERS ISLAND  0200   79     240/  5/  7 1009.1R
S GREEN BAY BUOY 0200   77 74  250/  6/  8   N/A
N MID LAKE BUOY  0250   69 68  220/ 10/ 12 1008.3R   3/ 6
NORTHPORT PIER   0200   80     280/  6/ 12 1008.8R
KEWAUNEE LAKESHO 0200   80                   N/A
SHEBOYGAN LAKESH 0300   81     300/  4/  5 1010.8S
PORT WASHINGTON  0200   84     300/  6/ 11 1011.5R
MILWAUKEE LAKESH 0210   86     300/  9/ 14   N/A
S MID LAKE BUOY  0250   76 72  220/ 16/ 17 1010.3R   2/ 4
KENOSHA   LAKESH 0300   85     300/  8/ 12 1010.8F
$$

TC  - TEMPERATURE IN CELSIUS
VSB - VISIBILITY IN STATUTE MILES
WCI - WIND CHILL INDEX
HX  - HEAT INDEX




USA.gov is the U.S. government's official web portal to all federal, state and local government web resources and services.